Terug naar catalogus

STARLINK-36692

ActiefCommunicatieSSO
NORAD 67744·PAYLOAD·🇺🇸 United States

Gelanceerd Feb 11, 2026 vanaf Vandenberg Space Force Base

Loading…

Volgende Passages (komende 24 uur)

TLE

VersSource: CelesTrak SupGP

Epoch: Sep 15, 2026, 03:23 UTC

1 67744C 26026Z   26258.14145833 -.00169610  00000+0 -52617-2 0  2581
2 67744  97.2840 310.1046 0001107  69.3879 264.6096 15.33546161    15

Volg STARLINK-36692 in realtime met AllMySat

Download on the App Store